Location: Gleizolles
(44.4833°N, 6.7667°E)
Time: 00:46:50
(UTC+00:00)

Altair - Pass Details

Date: 02 July 2024
Orbit: 1501 x 1682 km, 47.2° (Epoch: 22 May)

Event Time Altitude Azimuth Distance (km) Brightness Sun altitude
Rises 01:16:59 0° 270° (W) 4,634 9.8 -18.7°
Reaches altitude 10° 01:19:59 10° 272° (W) 3,659 9.3 -18.5°
Maximum altitude 01:29:13 75° 358° (N) 1,573 7.6 -17.8°
Drops below altitude 10° 01:38:43 10° 85° (E) 3,761 10.0 -17.0°
Sets 01:41:52 0° 87° (E) 4,769 10.6 -16.7°
